• în România
  • Lista ţărilor
  • Pe 7 zile
  • Temperatura apei
  • Hartă satelitară
  • Meteo pe hartă
  • Widget-uri
  • user-avatar
    Intrare

    Meteo pe oră la Pula

    Astăzi, 20 Septembrie, Joi

    Timp Temperatura Precipitaţii Vânt Presiune Umiditate
    00:00 +24°C° 0 mm 3 m/s 757 mmHg 70%
    01:00 +24°C° 0 mm 3 m/s 757 mmHg 72%
    02:00 +24°C° 0.1 mm 3 m/s 757 mmHg 71%
    03:00 +24°C° 0.1 mm 3 m/s 757 mmHg 70%
    04:00 +23°C° 0.1 mm 4 m/s 757 mmHg 69%
    05:00 +23°C° 0.2 mm 4 m/s 757 mmHg 68%
    06:00 +23°C° 0.2 mm 4 m/s 757 mmHg 67%
    07:00 +25°C° 0 mm 4 m/s 757 mmHg 62%
    08:00 +26°C° 0.1 mm 4 m/s 757 mmHg 56%
    09:00 +28°C° 0.1 mm 3 m/s 757 mmHg 51%
    10:00 +29°C° 0.1 mm 3 m/s 757 mmHg 45%
    11:00 +30°C° 0 mm 3 m/s 757 mmHg 43%
    12:00 +30°C° 0 mm 3 m/s 756 mmHg 41%
    13:00 +31°C° 0 mm 2 m/s 756 mmHg 39%
    14:00 +31°C° 0 mm 2 m/s 756 mmHg 40%
    15:00 +30°C° 0 mm 2 m/s 756 mmHg 42%
    16:00 +30°C° 0 mm 2 m/s 755 mmHg 44%
    17:00 +29°C° 0 mm 2 m/s 755 mmHg 49%
    18:00 +27°C° 0 mm 2 m/s 755 mmHg 53%
    19:00 +26°C° 0 mm 1 m/s 755 mmHg 58%
    20:00 +25°C° 0 mm 1 m/s 755 mmHg 61%
    21:00 +25°C° 0 mm 1 m/s 755 mmHg 63%
    22:00 +25°C° 0 mm 1 m/s 756 mmHg 65%
    23:00 +24°C° 0 mm 1 m/s 755 mmHg 66%

    Mâine, 21 Septembrie, Vineri

    Timp Temperatura Precipitaţii Vânt Presiune Umiditate
    00:00 +24°C° 0 mm 1 m/s 755 mmHg 67%
    01:00 +24°C° 0 mm 1 m/s 755 mmHg 68%
    02:00 +24°C° 0 mm 1 m/s 755 mmHg 68%
    03:00 +23°C° 0 mm 1 m/s 755 mmHg 68%
    04:00 +23°C° 0 mm 2 m/s 755 mmHg 68%
    05:00 +23°C° 0 mm 1 m/s 755 mmHg 68%
    06:00 +24°C° 0 mm 1 m/s 755 mmHg 68%
    07:00 +24°C° 0 mm 1 m/s 755 mmHg 68%
    08:00 +26°C° 0.1 mm 1 m/s 755 mmHg 61%
    09:00 +28°C° 0.1 mm 1 m/s 755 mmHg 54%
    10:00 +30°C° 0.1 mm 1 m/s 755 mmHg 48%
    11:00 +30°C° 0 mm 1 m/s 754 mmHg 48%
    12:00 +30°C° 0 mm 1 m/s 754 mmHg 48%
    13:00 +30°C° 0 mm 1 m/s 754 mmHg 48%
    14:00 +29°C° 0 mm 2 m/s 754 mmHg 51%
    15:00 +29°C° 0 mm 2 m/s 753 mmHg 55%
    16:00 +28°C° 0 mm 2 m/s 753 mmHg 58%
    17:00 +27°C° 0 mm 3 m/s 753 mmHg 63%
    18:00 +26°C° 0 mm 3 m/s 753 mmHg 68%
    19:00 +23°C° 0 mm 4 m/s 754 mmHg 73%
    20:00 +23°C° 0 mm 4 m/s 754 mmHg 73%
    21:00 +23°C° 0 mm 4 m/s 754 mmHg 73%
    22:00 +22°C° 0 mm 4 m/s 754 mmHg 74%
    23:00 +22°C° 0 mm 4 m/s 754 mmHg 75%

    Poimâine, 22 Septembrie, Sâmbătă

    Timp Temperatura Precipitaţii Vânt Presiune Umiditate
    00:00 +22°C° 0 mm 4 m/s 754 mmHg 77%
    01:00 +22°C° 0 mm 4 m/s 754 mmHg 79%
    02:00 +22°C° 0 mm 4 m/s 754 mmHg 81%
    03:00 +22°C° 0 mm 4 m/s 754 mmHg 83%
    04:00 +22°C° 0 mm 4 m/s 754 mmHg 85%
    05:00 +23°C° 0.3 mm 4 m/s 754 mmHg 85%
    06:00 +23°C° 0.3 mm 4 m/s 754 mmHg 85%
    07:00 +23°C° 0.3 mm 4 m/s 755 mmHg 84%
    08:00 +25°C° 0.2 mm 4 m/s 755 mmHg 79%
    09:00 +26°C° 0.2 mm 4 m/s 755 mmHg 75%
    10:00 +27°C° 0.2 mm 4 m/s 756 mmHg 70%
    11:00 +27°C° 0.2 mm 4 m/s 756 mmHg 69%
    12:00 +26°C° 0.2 mm 3 m/s 756 mmHg 68%
    13:00 +26°C° 0.2 mm 3 m/s 756 mmHg 67%
    14:00 +26°C° 0 mm 4 m/s 756 mmHg 62%
    15:00 +25°C° 0 mm 5 m/s 756 mmHg 58%
    16:00 +23°C° 0 mm 6 m/s 756 mmHg 53%
    17:00 +22°C° 0 mm 7 m/s 756 mmHg 56%
    18:00 +21°C° 0 mm 8 m/s 756 mmHg 58%
    19:00 +19°C° 0 mm 9 m/s 757 mmHg 61%
    20:00 +20°C° 0 mm 8 m/s 757 mmHg 61%
    21:00 +18°C° 0 mm 8 m/s 758 mmHg 61%
    22:00 +18°C° 0 mm 7 m/s 758 mmHg 61%
    23:00 +18°C° 0 mm 7 m/s 758 mmHg 61%

    23 Septembrie, Duminică

    Timp Temperatura Precipitaţii Vânt Presiune Umiditate
    00:00 +18°C° 0 mm 7 m/s 758 mmHg 60%
    01:00 +17°C° 0 mm 7 m/s 758 mmHg 60%
    02:00 +19°C° 0 mm 6 m/s 758 mmHg 60%
    03:00 +19°C° 0 mm 6 m/s 758 mmHg 60%
    04:00 +19°C° 0 mm 5 m/s 758 mmHg 60%
    05:00 +19°C° 0 mm 5 m/s 758 mmHg 62%
    06:00 +19°C° 0 mm 4 m/s 758 mmHg 64%
    07:00 +20°C° 0 mm 4 m/s 758 mmHg 65%
    08:00 +21°C° 0 mm 3 m/s 759 mmHg 61%
    09:00 +24°C° 0 mm 3 m/s 759 mmHg 57%
    10:00 +26°C° 0 mm 2 m/s 759 mmHg 53%
    11:00 +27°C° 0 mm 2 m/s 759 mmHg 53%
    12:00 +28°C° 0 mm 2 m/s 759 mmHg 52%
    13:00 +28°C° 0 mm 2 m/s 758 mmHg 52%
    14:00 +28°C° 0 mm 3 m/s 758 mmHg 54%
    15:00 +27°C° 0 mm 3 m/s 757 mmHg 57%
    16:00 +27°C° 0 mm 3 m/s 757 mmHg 59%
    17:00 +25°C° 0 mm 3 m/s 757 mmHg 65%
    18:00 +24°C° 0 mm 3 m/s 757 mmHg 71%
    19:00 +22°C° 0 mm 4 m/s 757 mmHg 76%
    20:00 +21°C° 0 mm 4 m/s 757 mmHg 78%
    21:00 +21°C° 0 mm 4 m/s 757 mmHg 80%
    22:00 +21°C° 0 mm 4 m/s 757 mmHg 82%
    23:00 +21°C° 0 mm 5 m/s 756 mmHg 84%

    24 Septembrie, Luni

    Timp Temperatura Precipitaţii Vânt Presiune Umiditate
    00:00 +21°C° 0 mm 5 m/s 755 mmHg 86%
    01:00 +22°C° 0 mm 6 m/s 755 mmHg 88%
    02:00 +22°C° 0 mm 6 m/s 754 mmHg 86%
    03:00 +23°C° 0 mm 7 m/s 754 mmHg 85%
    04:00 +24°C° 0 mm 8 m/s 753 mmHg 83%
    05:00 +24°C° 0 mm 7 m/s 753 mmHg 83%
    06:00 +24°C° 0 mm 7 m/s 753 mmHg 83%
    07:00 +23°C° 0 mm 7 m/s 752 mmHg 83%
    08:00 +25°C° 0 mm 5 m/s 753 mmHg 81%
    09:00 +26°C° 0 mm 4 m/s 753 mmHg 78%
    10:00 +26°C° 0 mm 3 m/s 753 mmHg 75%
    11:00 +27°C° 0.1 mm 3 m/s 753 mmHg 73%
    12:00 +27°C° 0.1 mm 2 m/s 753 mmHg 72%
    13:00 +27°C° 0.1 mm 2 m/s 753 mmHg 70%
    14:00 +26°C° 0.2 mm 3 m/s 753 mmHg 71%
    15:00 +23°C° 0.2 mm 4 m/s 754 mmHg 72%
    16:00 +22°C° 0.2 mm 6 m/s 754 mmHg 73%
    17:00 +19°C° 0.4 mm 9 m/s 754 mmHg 69%
    18:00 +18°C° 0.4 mm 12 m/s 755 mmHg 64%
    19:00 +17°C° 0.4 mm 15 m/s 756 mmHg 60%
    20:00 +17°C° 0.5 mm 15 m/s 757 mmHg 58%
    21:00 +15°C° 0.5 mm 16 m/s 758 mmHg 56%
    22:00 +15°C° 0.5 mm 16 m/s 758 mmHg 54%
    23:00 +15°C° 0.4 mm 15 m/s 759 mmHg 53%

    25 Septembrie, Marţi

    Timp Temperatura Precipitaţii Vânt Presiune Umiditate
    00:00 +15°C° 0.4 mm 15 m/s 760 mmHg 52%
    01:00 +15°C° 0.4 mm 14 m/s 760 mmHg 50%
    02:00 +15°C° 0.1 mm 13 m/s 761 mmHg 50%
    03:00 +14°C° 0.1 mm 13 m/s 761 mmHg 49%
    04:00 +14°C° 0.1 mm 12 m/s 762 mmHg 49%
    05:00 +14°C° 0 mm 12 m/s 762 mmHg 50%
    06:00 +13°C° 0 mm 13 m/s 763 mmHg 51%
    07:00 +13°C° 0 mm 13 m/s 763 mmHg 52%
    08:00 +13°C° 0 mm 13 m/s 763 mmHg 48%
    09:00 +14°C° 0 mm 12 m/s 764 mmHg 44%
    10:00 +15°C° 0 mm 12 m/s 764 mmHg 40%
    11:00 +17°C° 0 mm 12 m/s 764 mmHg 38%
    12:00 +17°C° 0 mm 12 m/s 764 mmHg 36%
    13:00 +18°C° 0 mm 12 m/s 764 mmHg 35%
    14:00 +17°C° 0 mm 12 m/s 764 mmHg 35%
    15:00 +17°C° 0 mm 12 m/s 764 mmHg 35%
    16:00 +17°C° 0 mm 12 m/s 764 mmHg 35%
    17:00 +15°C° 0 mm 13 m/s 764 mmHg 38%
    18:00 +14°C° 0 mm 13 m/s 765 mmHg 41%
    19:00 +13°C° 0 mm 14 m/s 766 mmHg 44%
    20:00 +13°C° 0 mm 14 m/s 766 mmHg 45%
    21:00 +12°C° 0 mm 14 m/s 767 mmHg 46%
    22:00 +12°C° 0 mm 14 m/s 767 mmHg 48%
    23:00 +12°C° 0 mm 14 m/s 768 mmHg 48%
    Arată mai mult